Probability
0 0 0 0 0 0 0 0 0 0 0 0 0 0 0 0 0 0 0 0 0 0 0 0 0 0 0 0 0 0 0 0 0 0 0 0 0 0 0 0 0 0 0
0 0 0 0 0 0 0 0 0 0 0 0 0 0 0 0 0 0 0 0 0 0 0 0 0 0 0 0 0 0 0 0 0 0 0 0 0 0 0 0 0 0 0
0 0 0 0 0 0 0 0 0 0 0 0 0 0 0 0 0 0 0 0 0 0 0 0 0 0 0 0 0 0 0 0 0 0 0 0 0 0 0 0 0 0 0
0 0 0 0 0 0 0 0 0 0 0 0 0 0 0 0 0 0 0 0 0 0 0 0 0 0 0 0 0 0 0 0 0 0 0 0 0 0 0 0 0 0 0
0 0 0 0 0 0 0 0 0 0 0 0 0 0 0 0 0 0 0 0 0 0 0 0 0 0 0 0 0 0 0 0 0 0 0 0 0 0 0 0 0 0 0
0 0 0 0 0 0 0 0 0 0 0 0 0 0 0 0 0 0 0 0 0 0 0 0 0 0 0 0 0 0 0 0 0 0 0 0 0 0 0 0 0 0 0
0 0 0 0 0 0 0 0 0 0 0 0 0 0 0 0 0 0 0 0 0 0 0 0 0 0 0 0 0 0 0 0 0 0 0 0 0 0 0 0 0 0 0
0 0 0 0 0 0 0 0 0 0 0 0 0 0 0 0 0 0 0 0 0 0 0 0 0 0 0 0 0 0 0 0 0 0 0 0 0 0 0 0 0 0 0
0 0 0 0 0 0 0 0 0 0 0 0 0 0 0 0 0 0 0 0 0 0 0 0 0 0 0 0 0 0 0 0 0 0 0 0 0 0 0 0 0 0 0
0 0 0 0 0 0 0 0 0 0 0 0 0 0 0 0 0 0 0 0 0 0 0 0 0 0 0 0 0 0 0 0 0 0 0 0 0 0 0 0 0 0 0
0 0 0 0 0 0 0 0 0 0 0 0 0 0 0 0 0 0 0 0 0 0 0 0 0 0 0 0 0 0 0 0 0 0 0 0 0 0 0 0 0 0 0
0 0 0 0 0 0 0 0 0 0 0 0 0 0 0 0 0 0 0 0 0 0 0 0 0 0 0 0 0 0 0 0 0 0 0 0 0 0 0 0 0 0 0
0 0 0 0 0 0 0 0 0 0 0 0 0 0 0 0 0 0 0 0 0 0 0 0 0 0 0 0 0 0 0 0 0 0 0 0 0 0 0 0 0 0 0
0 0 0 0 0 0 0 0 0 0 0 0 0 0 0 0 0 0 0 0 0 0 0 0 0 0 0 0 0 0 0 0 0 0 0 0 0 0 0 0 0 0 0
0 0 0 0 0 0 0 0 0 0 0 0 0 0 0 0 0 0 0 0 0 0 0 0 0 0 0 0 0 0 0 0 0 0 0 0 0 0 0 0 0 0 0
0 0 0 0 0 0 0 0 0 0 0 0 0 0 0 0 0 0 0 0 0 0 0 0 0 0 0 0 0 0 0 0 0 0 0 0 0 0 0 0 0 0 0
0 0 0 0 0 0 0 0 0 0 0 0 0 0 0 0 0 0 0 0 0 0 0 0 0 0 0 0 0 0 0 0 0 0 0 0 0 0 0 0 0 0 0
0 0 0 0 0 0 0 0 0 0 0 0 0 0 0 0 0 0 0 0 0 0 0 0 0 0 0 0 0 0 0 0 0 0 0 0 0 0 0 0 0 0 0
0 0 0 0 0 0 0 0 0 0 0 0 0 0 0 0 0 0 0 0 0 0 0 0 0 0 0 0 0 0 0 0 0 0 0 0 0 0 0 0 0 0 0
0 0 0 0 0 0 0 0 0 0 0 0 0 0 0 0 0 0 0 0 0 0 0 0 0 0 0 0 0 0 0 0 0 0 0 0 0 0 0 0 0 0 0
0 0 0 0 0 0 0 0 0 0 0 0 0 0 0 0 0 0 0 0 0 0 0 0 0 0 0 0 0 0 0 0 0 0 0 0 0 0 0 0 0 0 0
0 0 0 0 0 0 0 0 0 0 0 0 0 0 0 0 0 0 0 0 0 0 0 0 0 0 0 0 0 0 0 0 0 0 0 0 0 0 0 0 0 0 0
0 0 0 0 0 0 0 0 0 0 0 0 0 0 0 0 0 0 0 0 0 0 0 0 0 0 0 0 0 0 0 0 0 0 0 0 0 0 0 0 0 0 0
0 0 0 0 0 0 0 0 0 0 0 0 0 0 0 0 0 0 0 0 0 0 0 0 0 0 0 0 0 0 0 0 0 0 0 0 0 0 0 0 0 0 0
0 0 0 0 0 0 0 0 0 0 0 0 0 0 0 0 0 0 0 0 0 0 0 0 0 0 0 0 0 0 0 0 0 0 0 0 0 0 0 0 0 0 0
0 0 0 0 0 0 0 0 0 0 0 0 0 0 0 0 0 0 0 0 0 0 0 0 0 0 0 0 0 0 0 0 0 0 0 0 0 0 0 0 0 0 0
Wind_Speed
5 4 3 3 3 3 3 3 3 4 4 3 3 4 4 3 3 2 2 5 8 10 11 10 10 10 9 9 9 10 10 10 10 10 10 11 11 11 11 12 12 12 13
5 5 4 4 3 3 3 3 4 4 3 3 3 3 2 2 2 2 1 2 5 8 10 10 10 10 9 9 9 9 9 9 9 9 9 9 9 10 10 10 10 10 11
6 6 5 5 4 4 4 3 3 3 3 3 3 2 2 1 1 1 0 0 1 4 9 11 11 11 10 10 10 9 9 9 9 9 9 9 8 8 8 8 8 8 8
8 7 6 6 5 5 4 4 4 3 3 3 2 1 1 1 0 0 1 1 1 1 4 10 11 12 12 11 11 11 10 10 10 9 9 8 8 7 7 7 6 6 6
9 8 7 6 7 6 5 5 3 3 3 3 2 1 0 0 1 1 2 2 2 2 2 6 9 11 13 13 13 12 12 12 11 11 10 9 8 7 7 6 5 5 4
11 9 7 7 7 6 6 6 5 3 3 4 3 1 1 1 2 3 4 3 3 4 3 3 4 6 12 15 15 15 15 14 13 12 12 11 10 9 7 6 5 4 3
12 11 8 8 9 9 9 9 5 5 3 3 3 1 2 3 4 5 4 4 5 5 4 5 4 3 5 15 18 18 17 17 16 15 14 13 12 10 9 8 7 5 4
13 11 12 10 10 9 9 10 7 5 4 6 5 3 3 4 8 9 6 7 8 5 6 7 6 6 5 4 10 19 20 19 18 18 17 15 14 13 11 10 8 7 6
12 12 13 11 11 11 11 13 13 12 9 9 6 6 5 8 3 3 8 9 9 8 8 7 9 9 8 7 6 16 20 21 20 20 19 18 17 15 14 12 11 9 8
10 12 12 13 12 11 11 12 14 11 9 9 7 6 5 2 4 3 3 6 9 11 12 11 11 10 10 8 10 15 18 20 21 21 20 19 19 17 16 14 13 11 10
9 10 11 11 12 11 12 12 13 13 11 11 9 6 6 3 3 4 6 4 5 10 12 12 9 9 11 10 9 14 21 22 21 20 21 21 20 19 18 17 15 14 12
6 8 9 10 10 10 11 12 13 15 13 12 10 8 7 6 8 9 12 8 7 6 8 9 11 11 10 11 14 19 24 25 25 23 22 22 21 20 19 18 17 15 14
5 7 7 9 9 10 10 10 12 13 14 14 14 12 11 10 5 6 9 7 6 4 4 7 11 11 11 11 12 21 23 27 27 26 24 23 23 22 21 19 18 16 15
6 6 7 8 8 8 9 9 10 11 11 14 16 14 11 11 9 8 6 5 5 6 7 9 6 11 12 12 16 24 18 28 29 29 27 25 24 23 21 20 19 17 16
4 5 6 7 8 8 8 8 9 10 10 12 13 14 13 11 9 9 8 8 9 10 10 9 9 10 12 11 18 15 15 25 30 30 28 27 25 24 23 21 20 18 17
4 5 6 7 8 8 8 9 9 9 11 11 10 13 14 11 10 9 9 10 11 12 13 5 9 7 10 11 18 16 16 25 28 29 29 28 26 25 23 22 20 19 18
4 5 6 7 8 8 8 9 11 10 11 12 11 12 14 12 11 10 10 10 11 11 17 11 5 7 10 12 11 12 12 14 14 27 29 28 26 24 23 21 20 19 18
5 5 6 6 7 8 8 10 11 11 12 13 12 12 14 10 13 11 10 12 11 12 13 16 6 6 10 10 10 12 11 11 11 21 27 27 26 25 23 22 20 19 18
5 5 5 6 7 8 8 9 11 11 12 12 12 12 12 10 12 10 11 11 10 10 12 12 10 5 5 5 7 8 9 9 10 15 22 25 25 24 23 22 20 19 17
6 6 6 6 7 7 8 8 9 10 11 11 10 11 10 10 11 10 10 11 10 10 10 11 10 5 4 4 6 7 9 9 9 9 14 16 19 22 22 21 20 17 16
6 6 6 7 6 6 6 8 8 10 11 11 10 9 10 11 12 11 9 9 9 10 9 10 10 7 6 6 8 7 9 7 7 7 8 8 9 8 10 16 17 16 16
7 6 6 7 7 6 10 12 11 9 9 10 10 9 9 9 12 15 16 15 13 11 11 10 10 10 10 9 7 8 7 6 6 7 8 8 7 8 7 6 13 17 16
7 7 7 6 8 9 13 13 12 9 9 9 9 8 7 6 8 9 12 15 15 17 17 12 12 12 9 9 10 10 10 8 5 6 7 6 6 8 6 8 17 16 16
6 7 7 7 8 9 13 13 12 9 9 9 8 8 8 8 6 8 8 9 10 10 11 10 9 9 7 7 10 9 8 6 4 4 6 5 5 5 4 5 13 15 15
7 7 7 7 8 9 11 13 12 6 7 8 7 7 7 8 10 12 9 9 9 7 9 10 10 8 8 10 10 7 7 7 4 3 4 4 4 3 3 3 7 12 12
8 7 7 7 7 8 11 13 12 5 7 7 5 5 7 9 11 11 8 7 9 6 3 4 5 5 5 9 13 9 8 7 4 3 5 5 3 3 2 1 1 2 3
Wind_Direction
162 157 153 148 140 132 134 131 126 124 116 107 102 109 110 107 108 108 121 133 147 149 147 147 145 142 139 136 133 131 128 125 123 120 116 113 109 105 100 95 91 86 81
169 168 169 168 164 156 148 145 144 137 128 120 112 107 109 105 106 113 113 147 161 166 165 163 161 159 156 153 151 148 145 141 138 134 130 125 119 114 108 102 96 89 84
178 178 179 183 178 158 145 134 129 122 128 128 126 118 109 99 112 127 134 147 200 189 182 179 177 175 173 171 170 168 164 160 156 153 148 141 135 129 120 113 105 97 90
187 184 188 193 174 162 159 157 152 146 154 156 152 142 118 110 151 243 253 249 250 240 210 195 191 190 188 187 186 185 182 178 175 171 166 162 157 149 141 132 121 110 99
194 193 197 192 174 173 173 172 168 160 169 167 153 128 64 257 265 266 249 245 247 242 242 219 204 200 200 199 199 198 196 193 190 188 185 182 178 172 165 156 145 131 115
199 199 200 189 179 179 183 185 176 161 159 157 144 144 285 269 260 250 244 244 245 241 235 236 219 214 211 209 209 208 206 204 202 200 199 197 195 192 187 182 176 167 156
200 201 201 193 189 194 196 189 169 166 157 143 130 224 266 245 243 237 231 234 237 236 236 231 224 220 220 218 216 215 214 211 209 208 209 207 206 205 203 201 200 198 200
202 203 204 200 196 198 195 188 174 173 172 176 171 163 250 269 241 229 219 227 231 226 230 227 220 218 217 215 224 221 221 219 214 213 213 214 214 214 214 213 214 217 224
205 205 206 205 201 200 201 198 194 187 194 197 192 175 188 230 234 241 227 226 224 225 228 226 225 221 218 215 219 226 225 225 221 218 216 217 217 218 219 220 222 226 232
210 210 209 208 206 206 207 203 201 202 193 199 210 225 220 189 193 255 251 235 228 229 228 225 224 223 219 219 221 221 224 226 225 223 222 221 221 221 223 224 226 230 236
214 214 213 212 212 211 211 206 202 204 207 207 199 198 213 224 225 233 260 243 234 235 230 226 225 224 220 218 220 223 222 224 224 224 224 224 225 225 226 227 229 232 237
223 223 221 220 218 216 214 212 208 209 213 217 213 201 188 192 204 215 240 239 235 237 231 226 225 225 223 221 222 223 224 225 225 224 223 224 226 227 229 230 232 234 239
228 229 226 229 228 224 219 214 213 214 215 217 220 220 220 223 205 208 234 248 244 235 233 232 227 225 224 222 223 224 226 227 227 226 224 224 226 227 229 232 234 236 240
232 232 231 236 237 233 226 219 220 219 218 221 227 228 229 229 222 214 216 225 254 247 231 236 227 223 223 220 224 224 225 226 228 227 226 225 226 227 228 230 233 237 240
243 237 236 239 241 239 236 230 233 227 222 224 228 229 233 234 229 226 220 216 237 263 258 213 217 220 218 217 223 221 221 226 227 228 227 226 226 227 228 229 231 235 239
250 245 243 242 244 243 241 240 244 238 233 232 228 230 233 234 233 227 225 225 226 245 267 229 213 209 207 216 221 219 222 225 228 228 228 227 226 227 229 229 231 234 239
259 250 245 244 245 245 242 243 246 243 243 243 235 234 237 232 234 231 228 227 228 231 256 262 211 199 199 213 217 216 219 221 224 226 228 228 227 227 228 229 231 234 239
269 258 254 250 249 248 244 244 249 247 248 249 246 243 243 236 235 234 231 232 232 228 242 261 244 202 207 210 211 212 215 217 219 224 226 227 227 226 226 227 230 234 238
288 276 263 258 255 252 250 248 252 254 252 253 251 249 248 240 241 238 235 237 236 234 235 250 253 210 202 194 203 212 212 214 215 220 223 225 226 225 225 226 229 232 235
304 295 279 268 263 260 254 253 253 257 258 257 254 251 250 243 244 242 241 242 241 241 239 245 249 220 193 176 189 204 212 210 213 208 217 221 224 226 226 227 229 230 231
307 299 292 285 276 268 260 257 256 258 260 261 258 252 251 249 248 247 247 246 240 244 243 242 244 229 204 184 201 197 208 200 206 198 201 209 211 213 213 226 228 227 231
311 307 297 292 289 280 279 271 264 262 260 260 261 256 252 249 251 252 253 252 246 245 245 242 241 236 226 210 198 193 190 180 201 191 193 203 195 207 208 208 221 226 230
310 305 300 297 292 291 292 285 272 265 263 261 260 261 258 249 247 253 258 260 257 252 248 246 247 240 229 207 193 194 193 190 189 164 174 196 191 209 203 212 220 226 230
307 303 301 296 293 293 297 294 286 270 265 262 258 258 262 263 250 251 255 258 257 255 253 248 250 248 234 204 194 192 185 158 97 141 161 182 182 197 189 196 218 222 227
310 304 300 296 294 296 298 297 293 279 273 270 263 255 256 262 263 258 256 260 264 264 264 255 251 245 227 196 174 157 156 158 154 165 170 168 163 161 166 190 213 221 224
301 303 300 297 293 294 300 300 295 278 278 279 272 259 253 259 267 263 252 254 262 264 252 259 247 232 205 184 174 169 164 166 149 162 173 163 150 144 161 164 171 187 210